Melfa, VA

12:06 PM EDT on September 28, 2016 (GMT -0400)
Accomack County

Weather History for KMFV - November, 2011

Change the Weather History Date:

Friday, November 11, 2011

  Actual Average (KWAL) Record (KWAL)
Temperature  
Mean Temperature 48 °F 51 °F  
Max Temperature 51 °F 60 °F 71 °F (1985)
Min Temperature 39 °F 42 °F 24 °F (1973)
Degree Days  
Heating Degree Days 18    
Month to date heating degree days  
Since 1 July heating degree days  
Cooling Degree Days 0    
Month to date cooling degree days  
Year to date cooling degree days  
Moisture  
Dew Point 31 °F    
Average Humidity 53    
Maximum Humidity 70    
Minimum Humidity 43    
Precipitation  
Precipitation 0.01 in 0.09 in 0.44 in (1998)
Month to date precipitation 1.06  
Year to date precipitation 35.60  
Sea Level Pressure  
Sea Level Pressure 29.93 in    
Wind  
Wind Speed 15 mph (WNW)    
Max Wind Speed 23 mph    
Max Gust Speed 36 mph    
Visibility 10 miles    
Events      
T = Trace of Precipitation, MM = Missing Value Source: NWS Daily Summary

Daily Weather History Graph

Daily Weather History Graph

Search for Another Location

Airport or City:

Trip Planner

Search our weather history database for the weather conditions in past years. The results will help you decide how hot, cold, wet, or windy it might be!

Date:

Astronomy

Nov. 11, 2011 Rise Set
Actual Time 6:38 AM EST 4:55 PM EST
Civil Twilight 6:10 AM EST 5:22 PM EST
Nautical Twilight 5:39 AM EST 5:54 PM EST
Astronomical Twilight 5:08 AM EST 6:25 PM EST
Moon 5:24 PM EST (11/11) 7:23 AM EST (11/11)
Length of Visible Light 11h 12m
Length of Day
10h 16m
Full, 99% of the Moon is Illuminated
Nov 11
Full
Nov 18
Last Quarter
Nov 25
New
Dec 2
First Quarter
Dec 10
Full

Hourly Weather History & Observations

Time (EST) Temp. Windchill Dew Point Humidity Pressure Visibility Wind Dir Wind Speed Gust Speed Precip Events Conditions
12:15 AM 50.0 °F - 37.4 °F 62% 29.77 in 10.0 mi NW 11.5 mph 24.2 mph N/A   Scattered Clouds
12:35 AM 48.2 °F - 35.6 °F 62% 29.78 in 10.0 mi NW 16.1 mph 32.2 mph N/A   Clear
12:55 AM 48.2 °F - 35.6 °F 62% 29.78 in 10.0 mi NW 16.1 mph 28.8 mph N/A   Clear
1:15 AM 48.2 °F - 35.6 °F 62% 29.78 in 10.0 mi NW 16.1 mph 26.5 mph N/A   Clear
1:35 AM 48.2 °F - 35.6 °F 62% 29.78 in 10.0 mi NW 13.8 mph 27.6 mph N/A   Scattered Clouds
1:55 AM 48.2 °F - 35.6 °F 62% 29.78 in 10.0 mi NW 15.0 mph 25.3 mph N/A   Clear
2:15 AM 48.2 °F - 35.6 °F 62% 29.80 in 10.0 mi NW 15.0 mph 29.9 mph N/A   Clear
2:35 AM 48.2 °F - 35.6 °F 62% 29.80 in 10.0 mi NW 17.3 mph 34.5 mph N/A   Clear
3:15 AM 48.2 °F - 37.4 °F 66% 29.80 in 10.0 mi NW 19.6 mph 29.9 mph 0.01 in   Clear
3:35 AM 48.2 °F - 33.8 °F 58% 29.80 in 10.0 mi NW 19.6 mph 35.7 mph 0.01 in   Clear
3:55 AM 46.4 °F 39.2 °F 35.6 °F 66% 29.81 in 10.0 mi NW 18.4 mph 26.5 mph 0.01 in   Clear
4:15 AM 46.4 °F 40.4 °F 35.6 °F 66% 29.81 in 10.0 mi NW 13.8 mph 25.3 mph N/A   Scattered Clouds
4:35 AM 46.4 °F 39.0 °F 33.8 °F 62% 29.82 in 10.0 mi NNW 19.6 mph 32.2 mph N/A   Clear
4:55 AM 46.4 °F 39.2 °F 32.0 °F 57% 29.83 in 10.0 mi NW 18.4 mph 26.5 mph N/A   Clear
5:15 AM 46.4 °F 40.4 °F 30.2 °F 53% 29.84 in 10.0 mi NW 13.8 mph 27.6 mph N/A   Clear
5:35 AM 44.6 °F 36.4 °F 28.4 °F 53% 29.84 in 10.0 mi NW 20.7 mph 31.1 mph N/A   Clear
6:15 AM 44.6 °F 37.4 °F 30.2 °F 57% 29.86 in 10.0 mi NW 16.1 mph 26.5 mph N/A   Clear
6:35 AM 44.6 °F 38.4 °F 30.2 °F 57% 29.86 in 10.0 mi NW 12.7 mph 21.9 mph N/A   Scattered Clouds
6:55 AM 44.6 °F 37.8 °F 32.0 °F 61% 29.87 in 10.0 mi WNW 15.0 mph 25.3 mph N/A   Scattered Clouds
7:15 AM 44.6 °F 38.4 °F 30.2 °F 57% 29.88 in 10.0 mi WNW 12.7 mph 24.2 mph N/A   Scattered Clouds
7:35 AM 44.6 °F 37.4 °F 28.4 °F 53% 29.89 in 10.0 mi WNW 16.1 mph 24.2 mph N/A   Clear
7:55 AM 46.4 °F 40.1 °F 30.2 °F 53% 29.90 in 10.0 mi WNW 15.0 mph 23.0 mph N/A   Clear
8:15 AM 46.4 °F 39.5 °F 30.2 °F 53% 29.92 in 10.0 mi WNW 17.3 mph 23.0 mph N/A   Scattered Clouds
8:35 AM 46.4 °F 39.0 °F 30.2 °F 53% 29.92 in 10.0 mi WNW 19.6 mph 27.6 mph N/A   Clear
8:55 AM 46.4 °F 38.7 °F 30.2 °F 53% 29.93 in 10.0 mi WNW 20.7 mph 31.1 mph N/A   Clear
9:15 AM 46.4 °F 39.2 °F 28.4 °F 50% 29.93 in 10.0 mi WNW 18.4 mph 32.2 mph N/A   Scattered Clouds
9:35 AM 46.4 °F 38.7 °F 28.4 °F 50% 29.94 in 10.0 mi WNW 20.7 mph 29.9 mph N/A   Mostly Cloudy
9:55 AM 44.6 °F 36.4 °F 28.4 °F 53% 29.94 in 10.0 mi WNW 20.7 mph 31.1 mph N/A   Overcast
10:15 AM 46.4 °F 38.7 °F 28.4 °F 50% 29.94 in 10.0 mi WNW 20.7 mph 31.1 mph N/A   Mostly Cloudy
10:35 AM 46.4 °F 39.2 °F 28.4 °F 50% 29.94 in 10.0 mi WNW 18.4 mph 33.4 mph N/A   Scattered Clouds
10:55 AM 48.2 °F - 28.4 °F 46% 29.94 in 10.0 mi WNW 18.4 mph 27.6 mph N/A   Scattered Clouds
11:15 AM 48.2 °F - 28.4 °F 46% 29.94 in 10.0 mi WNW 23.0 mph 29.9 mph N/A   Scattered Clouds
11:35 AM 48.2 °F - 28.4 °F 46% 29.93 in 10.0 mi NW 16.1 mph 33.4 mph N/A   Clear
11:55 AM 48.2 °F - 28.4 °F 46% 29.93 in 10.0 mi WNW 20.7 mph 35.7 mph N/A   Clear
12:15 PM 48.2 °F - 30.2 °F 50% 29.93 in 10.0 mi WNW 20.7 mph 28.8 mph N/A   Clear
12:35 PM 50.0 °F - 30.2 °F 47% 29.93 in 10.0 mi WNW 21.9 mph 28.8 mph N/A   Clear
12:55 PM 51.8 °F - 30.2 °F 44% 29.93 in 10.0 mi WNW 13.8 mph 31.1 mph N/A   Clear
1:15 PM 50.0 °F - 30.2 °F 47% 29.93 in 10.0 mi WNW 15.0 mph 28.8 mph N/A   Clear
1:35 PM 51.8 °F - 30.2 °F 44% 29.94 in 10.0 mi WNW 18.4 mph 28.8 mph N/A   Clear
1:55 PM 51.8 °F - 30.2 °F 44% 29.94 in 10.0 mi WNW 12.7 mph 23.0 mph N/A   Clear
2:35 PM 51.8 °F - 30.2 °F 44% 29.96 in 10.0 mi WNW 18.4 mph 25.3 mph N/A   Scattered Clouds
2:55 PM 51.8 °F - 30.2 °F 44% 29.97 in 10.0 mi WNW 17.3 mph 27.6 mph N/A   Clear
3:15 PM 51.8 °F - 30.2 °F 44% 29.98 in 10.0 mi WNW 13.8 mph 24.2 mph N/A   Clear
3:35 PM 50.0 °F - 28.4 °F 43% 29.99 in 10.0 mi WNW 13.8 mph 23.0 mph N/A   Clear
4:15 PM 50.0 °F - 28.4 °F 43% 30.00 in 10.0 mi WNW 16.1 mph 26.5 mph N/A   Clear
4:35 PM 48.2 °F - 28.4 °F 46% 30.01 in 10.0 mi WNW 12.7 mph 23.0 mph N/A   Clear
4:55 PM 48.2 °F - 28.4 °F 46% 30.02 in 10.0 mi WNW 11.5 mph 19.6 mph N/A   Clear
5:35 PM 48.2 °F - 28.4 °F 46% 30.04 in 10.0 mi WNW 10.4 mph - N/A   Clear
5:55 PM 48.2 °F - 28.4 °F 46% 30.05 in 10.0 mi WNW 13.8 mph 23.0 mph N/A   Clear
6:35 PM 48.2 °F - 28.4 °F 46% 30.07 in 10.0 mi WNW 13.8 mph 17.3 mph N/A   Scattered Clouds
6:55 PM 48.2 °F - 28.4 °F 46% 30.07 in 10.0 mi WNW 9.2 mph - N/A   Scattered Clouds
7:15 PM 48.2 °F - 30.2 °F 50% 30.09 in 10.0 mi WNW 6.9 mph - N/A   Clear
7:35 PM 46.4 °F 41.5 °F 28.4 °F 50% 30.09 in 10.0 mi WNW 10.4 mph 17.3 mph N/A   Clear
7:55 PM 46.4 °F 41.9 °F 28.4 °F 50% 30.10 in 10.0 mi WNW 9.2 mph - N/A   Clear
8:15 PM 46.4 °F 42.9 °F 28.4 °F 50% 30.11 in 10.0 mi WNW 6.9 mph - N/A   Clear
8:35 PM 44.6 °F 40.7 °F 28.4 °F 53% 30.12 in 10.0 mi WNW 6.9 mph - N/A   Clear
8:55 PM 44.6 °F - 28.4 °F 53% 30.13 in 10.0 mi Calm Calm - N/A   Clear
9:15 PM 44.6 °F 43.1 °F 28.4 °F 53% 30.14 in 10.0 mi WNW 3.5 mph - N/A   Clear
9:35 PM 39.2 °F - 30.2 °F 70% 30.14 in 10.0 mi Calm Calm - N/A   Clear
9:55 PM 37.4 °F 34.9 °F 30.2 °F 75% 30.15 in 10.0 mi WSW 3.5 mph - N/A   Clear
10:15 PM 35.6 °F 31.7 °F 30.2 °F 81% 30.15 in 10.0 mi West 4.6 mph - N/A   Clear
10:35 PM 35.6 °F - 30.2 °F 81% 30.15 in 10.0 mi Calm Calm - N/A   Clear
10:55 PM 33.8 °F - 28.4 °F 81% 30.15 in 10.0 mi Calm Calm - N/A   Clear
11:15 PM 33.8 °F - 30.2 °F 87% 30.15 in 10.0 mi Calm Calm - N/A   Clear
11:35 PM 33.8 °F - 28.4 °F 81% 30.16 in 10.0 mi Calm Calm - N/A   Clear
11:55 PM 33.8 °F - 28.4 °F 81% 30.16 in 10.0 mi Calm Calm - N/A   Clear